TJS-3

Last updated on Jan. 26, 2020, 4:40 a.m. UTC

1 43874U 18110A   20025.52819913 -.00000006  00000-0  00000-0 0  9991
2 43874   0.1020 268.7206 0005559 329.6269 249.0557  1.00272042  4018
UTC
Height (km)
Latitude
Longitude
Inclination
Orbital Period
UTC large
Height (km)
Speed (km/s)
/
Latitude / Longitude
Inclination (degrees)
Orbital Period (minutes)
Azimuth
Elevation
Range (km)
Doppler Factor
iOS Compass Heading
iOS Angle

Next 30 passes for location: Hong Kong

Rise time Rise Azimuth (degrees) Set time Set Azimuth (degrees) Duration Max altitude (degrees)

No matching passes for this satellites